Aérodrome :
LOGIN :

S'inscrire | Disclaimer

   EN    FR    IT 

 










Légende :    VFR   VFR Marginal   IFR   IFR Intensif   IFR Très Intensif
Visi : 
Plafond : 
>= 8 km
>= 3000ft
5 à 8 km
1000 à 3000 ft
1500m à 5 km
500 à 1000 ft
800 à 1500m
200 à 500 ft
< 800m
< 200 ft
Symboles :   Orages  Brouillard  Fortes neiges  Fortes précipitations  Vent > 20 kt
SIGMETs :   Divers  Orages  Givrage  Turbulence  Onde Orograph.  Cendres Volcan.







- Altitude de l'aérodrome : 19 ft
- Code IATA : LCY
- Voir les cartes d'approche


EGLC - London City

DERNIER METAR :
  • 261820Z AUTO 10015KT 9999 NCD 22/13 Q1015

METARs EXPIRÉS :
  • 261750Z AUTO 09018KT 9999 NCD 23/13 Q1015
  • 261720Z AUTO 09016KT 9999 NCD 23/13 Q1016
  • 261650Z AUTO 09020KT 9999 NCD 24/13 Q1016
  • 261620Z AUTO 10019KT 9999 NCD 24/13 Q1016
  • 261550Z AUTO 09020KT 9999 NCD 24/13 Q1016

TAF TAF EGLC
Valide du 26 à 18h jusqu'au 26 à 21h UTC


261659Z 2618/2621 09018KT CAVOK
BECMG 2620/2621 10008KT
ATIS : +44 20 7646 0224
Pas de NOTAMs connus pour ce terrain.



MET'MAP, la Météo Aéronautique d'un coup d'oeil ! - Copyright ORBIFLY Décembre 2007 - Disclaimer

ORBIFLY MET'MAP TEAM :

Programmation & Développement : Alexandra Zaïnal
Conception & Développement : Baudouin d'Aumeries
Co-Programmation & Développement : Marc-Olivier Méhu
Soutien technique & logistique : Manuel Goepfert

Contact : metmap@orbifly.com




SOURCES & CREDITS :

   NOAA